Weather History for South Hill, VA

Change the Weather History Date:

Wednesday, June 26, 2013

  Actual Average (KEMV) Record (KEMV)
Temperature  
Mean Temperature 81 °F -  
Max Temperature 93 °F 88 °F 98 °F (2008)
Min Temperature 69 °F 63 °F 54 °F (1984)
Cooling Degree Days 16    
Growing Degree Days 31 (Base 50)    
Moisture  
Dew Point 73 °F    
Average Humidity 84    
Maximum Humidity 100    
Minimum Humidity 52    
Precipitation  
Precipitation 0.60 in - - ()
Sea Level Pressure  
Sea Level Pressure 30.00 in    
Wind  
Wind Speed 7 mph (SSW)    
Max Wind Speed 21 mph    
Max Gust Speed 33 mph    
Visibility 10 miles    
Events Rain , Thunderstorm    
Averages and records for this station are not official NWS values.
T = Trace of Precipitation, MM = Missing Value Source: NWS Daily Summary

Daily Weather History Graph

Daily Weather History Graph

Search for Another Location

Airport:

Trip Planner

Search our weather history database for the weather conditions in past years. The results will help you decide how hot, cold, wet, or windy it might be!

Date:

Astronomy

Jun. 26, 2013 Rise Set
Actual Time 5:55 AM EDT 8:34 PM EDT
Civil Twilight 5:24 AM EDT 9:05 PM EDT
Nautical Twilight 4:46 AM EDT 9:43 PM EDT
Astronomical Twilight 4:03 AM EDT 10:26 PM EDT
Moon 11:04 PM EDT (6/26) 9:38 AM EDT (6/26)
Length of Visible Light 15h 40m
Length of Day
14h 39m
Waning Gibbous, 85% of the Moon is Illuminated
Jun 26
Waning Gibbous
Jun 30
Last Quarter
Jul 8
New
Jul 15
First Quarter
Jul 22
Full

Hourly Weather History & Observations

Time (EDT) Temp. Heat Index Dew Point Humidity Pressure Visibility Wind Dir Wind Speed Gust Speed Precip Events Conditions
12:15 AM 75.2 °F - 73.4 °F 94% 30.06 in 10.0 mi SSW 4.6 mph - N/A   Clear
12:35 AM 75.2 °F - 71.6 °F 89% 30.05 in 10.0 mi SSW 6.9 mph - N/A   Clear
12:55 AM 75.2 °F - 71.6 °F 89% 30.05 in 10.0 mi South 5.8 mph - N/A   Clear
1:15 AM 73.4 °F - 73.4 °F 100% 30.05 in 10.0 mi SSW 6.9 mph - N/A   Clear
1:35 AM 73.4 °F - 73.4 °F 100% 30.04 in 10.0 mi SSW 8.1 mph - N/A   Clear
1:55 AM 73.4 °F - 73.4 °F 100% 30.04 in 10.0 mi SSW 4.6 mph - N/A   Clear
2:15 AM 73.4 °F - 73.4 °F 100% 30.03 in 10.0 mi SSW 3.5 mph - N/A   Clear
2:35 AM 73.4 °F - 73.4 °F 100% 30.03 in 10.0 mi South 4.6 mph - N/A   Clear
2:55 AM 73.4 °F - 73.4 °F 100% 30.02 in 10.0 mi SSW 4.6 mph - N/A   Clear
3:15 AM 71.6 °F - 71.6 °F 100% 30.02 in 10.0 mi South 4.6 mph - N/A   Clear
3:35 AM 71.6 °F - 71.6 °F 100% 30.02 in 10.0 mi South 4.6 mph - N/A   Clear
3:55 AM 71.6 °F - 71.6 °F 100% 30.02 in 10.0 mi SSW 4.6 mph - N/A   Clear
4:15 AM 71.6 °F - 71.6 °F 100% 30.01 in 10.0 mi SSW 4.6 mph - N/A   Clear
4:35 AM 71.6 °F - 71.6 °F 100% 30.01 in 10.0 mi South 3.5 mph - N/A   Clear
4:55 AM 71.6 °F - 71.6 °F 100% 30.01 in 10.0 mi South 5.8 mph - N/A   Clear
5:15 AM 71.6 °F - 71.6 °F 100% 30.01 in 10.0 mi SSW 4.6 mph - N/A   Clear
5:35 AM 71.6 °F - 71.6 °F 100% 30.02 in 10.0 mi SSW 5.8 mph - N/A   Clear
5:55 AM 71.6 °F - 71.6 °F 100% 30.03 in 10.0 mi SSW 4.6 mph - N/A   Clear
6:15 AM 71.6 °F - 71.6 °F 100% 30.03 in 10.0 mi South 6.9 mph - N/A   Clear
6:35 AM 71.6 °F - 71.6 °F 100% 30.03 in 10.0 mi SSW 6.9 mph - N/A   Clear
6:55 AM 71.6 °F - 71.6 °F 100% 30.04 in 10.0 mi SSW 8.1 mph - N/A   Clear
7:15 AM 73.4 °F - 73.4 °F 100% 30.04 in 10.0 mi SSW 9.2 mph - N/A   Clear
7:55 AM 77.0 °F - 75.2 °F 94% 30.04 in 10.0 mi SSW 8.1 mph - N/A   Clear
8:15 AM 78.8 °F - 75.2 °F 89% 30.05 in 10.0 mi SSW 10.4 mph - N/A   Clear
8:35 AM 78.8 °F - 75.2 °F 89% 30.04 in 10.0 mi SW 8.1 mph - N/A   Clear
8:55 AM 80.6 °F 86.2 °F 75.2 °F 84% 30.04 in 10.0 mi SW 10.4 mph - N/A   Clear
9:15 AM 82.4 °F 89.5 °F 75.2 °F 79% 30.03 in 10.0 mi SW 6.9 mph - N/A   Clear
9:35 AM 82.4 °F 88.2 °F 73.4 °F 74% 30.03 in 10.0 mi SW 9.2 mph - N/A   Clear
9:55 AM 84.2 °F 90.9 °F 73.4 °F 70% 30.02 in 10.0 mi SSW 10.4 mph - N/A   Clear
10:15 AM 84.2 °F 92.3 °F 75.2 °F 74% 30.01 in 10.0 mi South 6.9 mph - N/A   Clear
10:55 AM 87.8 °F 97.6 °F 75.2 °F 66% 30.01 in 10.0 mi SW 8.1 mph - N/A   Clear
11:15 AM 89.6 °F 99.8 °F 75.2 °F 62% 30.00 in 10.0 mi SSW 9.2 mph - N/A   Clear
11:35 AM 89.6 °F 99.8 °F 75.2 °F 62% 30.00 in 10.0 mi SW 9.2 mph - N/A   Clear
11:55 AM 89.6 °F 99.8 °F 75.2 °F 62% 30.00 in 10.0 mi WSW 12.7 mph 16.1 mph N/A   Clear
12:15 PM 89.6 °F 98.2 °F 73.4 °F 59% 30.00 in 10.0 mi SW 10.4 mph 17.3 mph N/A   Clear
12:35 PM 89.6 °F 98.2 °F 73.4 °F 59% 30.01 in 10.0 mi SSW 10.4 mph - N/A   Scattered Clouds
12:55 PM 89.6 °F 99.8 °F 75.2 °F 62% 30.00 in 10.0 mi SW 8.1 mph - N/A   Scattered Clouds
1:15 PM 89.6 °F 98.2 °F 73.4 °F 59% 30.00 in 10.0 mi SSW 11.5 mph 18.4 mph N/A   Scattered Clouds
1:35 PM 91.4 °F 100.1 °F 73.4 °F 55% 30.00 in 10.0 mi SSW 10.4 mph 16.1 mph N/A   Scattered Clouds
1:55 PM 91.4 °F 100.1 °F 73.4 °F 55% 29.99 in 10.0 mi SW 8.1 mph - N/A   Scattered Clouds
2:15 PM 91.4 °F 102.5 °F 75.2 °F 59% 29.98 in 10.0 mi SW 9.2 mph - N/A   Scattered Clouds
2:35 PM 93.2 °F 105.0 °F 75.2 °F 56% 29.98 in 10.0 mi SSW 9.2 mph - N/A   Clear
2:55 PM 91.4 °F 100.1 °F 73.4 °F 55% 29.97 in 10.0 mi South 6.9 mph - N/A   Scattered Clouds
3:15 PM 91.4 °F 100.1 °F 73.4 °F 55% 29.95 in 10.0 mi SSW 6.9 mph - N/A   Scattered Clouds
3:35 PM 93.2 °F 102.4 °F 73.4 °F 52% 29.95 in 10.0 mi WSW 8.1 mph - N/A   Scattered Clouds
3:55 PM 93.2 °F 102.4 °F 73.4 °F 52% 29.94 in 10.0 mi SSW 9.2 mph - N/A   Scattered Clouds
4:15 PM 93.2 °F 102.4 °F 73.4 °F 52% 29.93 in 10.0 mi SW 9.2 mph - N/A   Scattered Clouds
4:35 PM 91.4 °F 100.1 °F 73.4 °F 55% 29.92 in 10.0 mi South 10.4 mph - N/A   Clear
4:55 PM 93.2 °F 102.4 °F 73.4 °F 52% 29.93 in 10.0 mi SSW 10.4 mph - N/A   Clear
5:15 PM 93.2 °F 102.4 °F 73.4 °F 52% 29.93 in 10.0 mi SSW 8.1 mph - N/A   Clear
5:35 PM 91.4 °F 102.5 °F 75.2 °F 59% 29.93 in 10.0 mi South 9.2 mph - N/A   Scattered Clouds
5:55 PM 89.6 °F 99.8 °F 75.2 °F 62% 29.94 in 10.0 mi SSW 8.1 mph - N/A Thunderstorm Mostly Cloudy
6:15 PM 87.8 °F 97.6 °F 75.2 °F 66% 29.95 in 10.0 mi WSW 20.7 mph 33.4 mph N/A   Mostly Cloudy
6:35 PM 73.4 °F - 71.6 °F 94% 29.98 in 1.0 mi NNW 16.1 mph 20.7 mph 0.47 in Rain , Thunderstorm Heavy Thunderstorms and Rain
6:55 PM 71.6 °F - 71.6 °F 100% 30.01 in 10.0 mi SSW 4.6 mph - 0.04 in Rain , Thunderstorm Thunderstorms and Rain
7:15 PM 73.4 °F - 73.4 °F 100% 30.01 in 10.0 mi Calm Calm - 0.06 in Rain , Thunderstorm Light Thunderstorms and Rain
7:35 PM 71.6 °F - 71.6 °F 100% 30.01 in 10.0 mi SW 4.6 mph - 0.07 in Rain , Thunderstorm Light Thunderstorms and Rain
7:55 PM 71.6 °F - 71.6 °F 100% 30.01 in 10.0 mi SW 5.8 mph - 0.01 in Rain , Thunderstorm Thunderstorms and Rain
8:15 PM 71.6 °F - 71.6 °F 100% 30.00 in 10.0 mi SW 4.6 mph - 0.05 in Rain , Thunderstorm Light Thunderstorms and Rain
8:35 PM 71.6 °F - 71.6 °F 100% 29.99 in 10.0 mi SSW 5.8 mph - 0.06 in Rain Light Rain
8:55 PM 71.6 °F - 71.6 °F 100% 29.98 in 10.0 mi SSW 4.6 mph - N/A Rain Light Rain
9:15 PM 71.6 °F - 71.6 °F 100% 29.97 in 10.0 mi SSW 5.8 mph - N/A Rain Light Rain
9:35 PM 71.6 °F - 71.6 °F 100% 29.96 in 10.0 mi South 5.8 mph - N/A Rain Light Rain
9:55 PM 71.6 °F - 71.6 °F 100% 29.97 in 10.0 mi South 4.6 mph - N/A   Clear
10:15 PM 71.6 °F - 71.6 °F 100% 29.98 in 10.0 mi SSW 3.5 mph - N/A   Clear
10:35 PM 71.6 °F - 71.6 °F 100% 29.97 in 10.0 mi Calm Calm - N/A   Clear
10:55 PM 71.6 °F - 71.6 °F 100% 29.98 in 10.0 mi Calm Calm - N/A   Clear
11:15 PM 71.6 °F - 71.6 °F 100% 29.98 in 10.0 mi SSW 4.6 mph - N/A   Clear
11:35 PM 69.8 °F - 69.8 °F 100% 29.97 in 10.0 mi SSW 4.6 mph - N/A   Scattered Clouds
11:55 PM 69.8 °F - 69.8 °F 100% 29.97 in 10.0 mi SSW 3.5 mph - N/A   Clear